Date,TemperatureHighF,TemperatureAvgF,TemperatureLowF,DewpointHighF,DewpointAvgF,DewpointLowF,HumidityHigh,HumidityAvg,HumidityLow,PressureMaxIn,PressureMinIn,WindSpeedMaxMPH,WindSpeedAvgMPH,GustSpeedMaxMPH,PrecipitationSumIn
2014-1-1,45.0,37.6,33.1,36.0,31.9,28.3,87,80,71,30.01,29.91,11,2,11,0.00
2014-1-2,50.9,39.3,33.6,40.0,32.4,28.3,85,76,60,29.93,29.53,24,3,24,0.11
2014-1-3,46.6,41.4,30.7,40.7,33.3,24.4,83,73,59,29.89,29.57,24,7,24,0.14
2014-1-4,43.2,32.4,26.1,28.4,23.8,20.0,84,71,53,30.04,29.89,8,2,8,0.00
2014-1-5,44.4,32.4,24.3,27.2,20.6,17.1,75,62,44,30.17,30.03,14,3,14,0.00
2014-1-6,35.1,30.3,25.3,23.0,19.3,16.1,71,63,55,30.05,29.80,7,1,7,0.00
2014-1-7,36.0,32.8,30.6,28.5,26.5,23.2,83,78,69,29.80,29.66,4,1,4,0.12
2014-1-8,44.1,35.5,32.7,38.7,31.1,28.3,88,84,78,29.68,29.39,26,2,26,0.61
2014-1-9,48.7,43.0,39.6,41.0,36.8,33.3,87,79,67,29.64,29.43,34,8,34,0.64
2014-1-10,49.8,47.5,43.5,40.2,38.5,36.2,84,71,60,29.68,29.38,36,11,36,3.60
2014-1-11,51.1,44.0,40.6,42.7,37.9,34.1,85,79,65,29.50,29.14,42,11,42,3.20
2014-1-12,51.1,46.1,39.4,43.2,38.0,32.1,80,73,66,29.95,29.49,39,14,39,1.33
2014-1-13,48.9,46.9,44.2,41.8,39.8,37.7,84,76,69,30.23,29.92,36,10,36,0.83
2014-1-14,48.2,42.9,36.1,40.7,37.9,31.0,87,82,74,30.25,30.12,11,1,11,0.00
2014-1-15,47.3,37.0,30.9,37.3,31.8,27.0,89,82,66,30.14,30.00,8,2,8,0.00
2014-1-16,49.3,38.6,31.1,35.7,30.5,26.0,82,73,57,30.15,29.99,9,2,9,0.01
2014-1-17,39.6,32.8,27.7,32.6,27.5,22.3,85,81,72,30.00,29.92,16,3,16,0.00
2014-1-18,34.5,33.3,32.4,28.3,27.0,26.0,81,77,75,30.01,29.86,8,3,8,0.00
2014-1-19,38.1,32.8,31.3,29.6,26.2,25.5,81,77,66,30.04,29.80,11,3,11,0.00
2014-1-20,33.4,32.3,31.1,26.4,25.3,24.4,79,75,73,30.14,30.03,11,4,11,0.00
2014-1-21,33.1,31.4,30.2,24.8,24.1,23.3,78,74,70,30.10,29.99,11,3,11,0.00
2014-1-22,33.4,31.6,30.2,26.9,25.2,23.3,81,77,73,30.12,29.95,12,2,12,0.00
2014-1-23,33.8,32.2,30.9,26.1,25.2,24.5,80,75,69,30.23,30.10,16,6,16,0.00
2014-1-24,32.4,31.3,29.1,25.5,24.1,22.9,78,74,72,30.26,30.16,12,4,12,0.00
2014-1-25,32.0,29.7,28.0,23.3,22.4,20.9,79,74,69,30.19,29.99,9,3,9,0.00
2014-1-26,30.6,29.3,27.9,23.6,22.4,20.0,77,75,71,29.99,29.88,13,3,13,0.00
2014-1-27,31.5,29.7,27.7,23.8,22.0,20.0,76,73,70,30.05,29.91,9,2,9,0.00
2014-1-28,36.0,32.9,30.7,27.9,25.4,23.7,82,74,63,30.03,29.67,9,2,9,0.37
2014-1-29,45.3,37.1,32.0,39.8,31.8,27.4,87,81,72,29.67,29.28,30,6,30,1.09
2014-1-30,48.2,41.6,37.6,35.7,34.0,32.3,86,75,57,29.55,29.47,19,6,20,0.11
2014-1-31,47.7,40.4,37.6,36.3,34.4,33.2,86,79,64,29.72,29.54,19,5,19,0.01
2014-2-1,48.0,38.7,32.5,36.9,31.6,25.2,87,76,57,29.77,29.66,11,2,11,0.04
2014-2-2,35.2,32.6,31.1,25.6,23.7,22.0,78,69,65,29.67,29.55,11,3,11,0.00
2014-2-3,36.0,31.3,28.8,26.6,24.3,22.4,80,75,67,29.79,29.58,11,2,11,0.00
2014-2-4,29.3,25.9,20.1,23.3,16.7,8.9,79,68,60,30.06,29.79,11,3,11,0.00
2014-2-5,23.9,18.3,15.3,9.1,-2.2,-10.6,62,40,26,30.14,29.99,20,7,20,0.00
2014-2-6,15.6,13.2,11.5,3.8,0.0,-6.2,68,56,38,29.99,29.48,12,4,12,0.00
2014-2-7,19.8,14.7,11.7,8.6,5.7,3.2,72,67,53,29.60,29.47,12,2,12,0.00
2014-2-8,21.2,18.9,15.3,14.4,11.9,7.9,76,74,70,29.78,29.52,12,1,12,0.00
2014-2-9,26.8,23.1,19.6,18.7,16.0,13.3,78,74,67,29.82,29.67,6,1,8,0.00
2014-2-10,32.0,27.2,23.7,26.5,20.7,16.5,84,76,71,29.84,29.69,5,1,5,0.00
2014-2-11,46.4,38.0,29.8,41.2,33.9,25.9,88,85,79,29.74,29.40,7,1,7,0.33
2014-2-12,51.3,43.6,35.1,43.6,38.8,30.7,88,83,73,29.50,29.28,20,3,20,0.24
2014-2-13,53.2,45.9,37.9,42.7,37.3,32.0,87,72,52,29.72,29.41,33,5,33,0.24
2014-2-14,50.9,41.6,35.6,41.6,35.4,30.7,88,79,63,29.57,29.36,21,3,21,0.57
2014-2-15,44.2,38.6,36.5,38.7,34.2,31.5,88,84,67,29.56,29.08,38,3,38,0.94
2014-2-16,48.2,41.9,37.9,37.0,33.5,31.5,85,72,55,29.65,29.32,27,6,27,0.14
2014-2-17,50.9,44.4,39.4,41.9,36.9,33.2,86,75,57,29.59,29.33,29,5,29,0.70
2014-2-18,44.2,40.8,36.9,39.0,35.3,29.4,87,81,66,29.59,29.28,32,6,32,0.93
2014-2-19,45.0,37.8,34.7,35.1,32.2,29.5,85,80,63,29.76,29.54,26,7,26,0.51
2014-2-20,44.8,42.1,37.9,37.6,35.6,33.0,87,78,67,29.78,29.65,26,7,26,0.28
2014-2-21,49.5,43.8,39.0,36.2,32.1,27.8,72,63,54,29.81,29.76,21,8,21,0.00
2014-2-22,49.1,39.1,32.7,30.9,27.9,25.8,77,65,44,29.77,29.62,19,6,19,0.00
2014-2-23,52.9,42.8,33.8,37.7,32.0,25.8,82,66,46,29.62,29.50,21,4,21,0.00
2014-2-24,43.0,37.1,34.2,37.9,30.7,27.1,83,77,70,29.84,29.61,14,4,14,0.25
2014-2-25,35.1,34.0,32.5,27.1,26.1,23.4,78,73,64,29.93,29.82,17,5,17,0.04
2014-2-26,41.0,36.9,34.0,27.9,24.9,22.4,68,61,56,29.82,29.44,13,4,13,0.00
2014-2-27,41.7,37.7,34.5,33.0,29.3,25.6,80,71,64,29.44,29.33,6,2,6,0.00
2014-2-28,49.3,41.2,35.6,36.0,32.1,29.4,83,70,58,29.34,29.16,12,3,12,0.00
2014-3-1,42.1,32.6,26.2,33.2,21.4,14.1,77,63,47,29.53,29.19,21,4,21,0.00
2014-3-2,28.9,27.0,25.0,24.0,20.1,17.2,82,75,69,29.53,29.40,8,2,8,0.00
2014-3-3,46.0,36.8,28.4,40.9,32.0,23.3,84,82,75,29.54,29.38,12,1,12,0.51
2014-3-4,54.5,47.0,39.7,44.0,40.6,35.9,86,79,65,29.61,29.47,15,3,15,0.02
2014-3-5,54.1,47.3,43.0,48.9,42.6,38.4,87,84,63,29.48,29.13,23,3,23,0.74
2014-3-6,54.0,48.9,45.7,42.9,40.8,37.7,82,74,54,29.70,29.20,28,8,31,0.40
2014-3-7,60.1,49.2,40.3,44.6,40.4,35.1,85,72,49,29.88,29.70,17,4,17,0.05
2014-3-8,52.7,44.5,37.0,47.9,38.8,31.8,87,81,61,29.78,29.45,15,2,15,0.38
2014-3-9,52.5,52.0,51.4,48.0,47.6,47.1,86,85,84,29.54,29.49,11,2,15,0.17
2014-3-10,52.0,52.0,52.0,47.6,47.6,47.6,85,85,85,29.54,29.54,2,2,4,0.17
2014-3-11,52.0,52.0,52.0,47.6,47.6,47.6,85,85,85,29.54,29.54,2,2,4,0.17
2014-3-12,52.0,52.0,52.0,47.6,47.6,47.6,85,85,85,29.54,29.54,2,2,4,0.17
2014-3-13,36.7,34.2,32.5,30.3,27.2,25.7,78,75,72,30.34,30.17,14,5,14,0.09
2014-3-14,41.0,35.6,34.0,27.3,24.7,22.4,72,64,56,30.28,30.02,8,4,8,0.00
2014-3-15,41.0,37.1,34.5,30.9,27.1,24.1,73,67,56,30.00,29.76,7,2,7,0.00
2014-3-16,44.6,39.9,36.0,39.8,34.2,29.8,88,80,65,29.96,29.67,14,3,14,0.11
2014-3-17,47.1,41.6,38.5,35.8,32.8,29.1,85,71,53,30.32,29.95,24,11,24,0.02
2014-3-18,56.7,44.6,33.1,39.1,34.9,28.2,85,69,51,30.32,30.17,17,5,17,0.00
2014-3-19,51.6,40.6,34.0,41.4,34.6,29.2,88,79,66,30.19,30.05,33,5,33,0.18
2014-3-20,49.6,41.8,36.1,34.7,32.0,28.7,82,69,53,30.33,30.19,23,6,23,0.00
2014-3-21,55.6,41.2,30.2,33.0,25.6,15.2,83,59,21,30.32,30.20,16,4,16,0.00
2014-3-22,61.3,43.8,29.3,33.0,25.2,18.5,77,53,20,30.34,30.15,12,3,12,0.00
2014-3-23,63.9,47.6,34.9,39.7,31.9,23.6,80,58,24,30.28,30.18,17,4,17,0.00
2014-3-24,64.4,48.8,35.2,36.8,32.5,27.5,78,56,29,30.23,29.95,17,4,17,0.00
2014-3-25,56.1,46.4,41.7,47.4,39.8,34.3,90,78,57,29.95,29.66,21,3,21,0.33
2014-3-26,52.2,44.3,40.3,44.7,40.4,38.0,94,87,71,29.68,29.56,20,2,20,0.09
2014-3-27,53.2,44.7,39.4,44.2,40.4,37.3,93,85,66,29.94,29.62,16,3,16,0.31
2014-3-28,47.1,44.2,41.9,44.6,41.7,39.5,93,91,86,29.94,29.76,8,2,8,0.64
2014-3-29,53.6,45.5,41.4,45.3,41.0,38.4,93,84,62,29.89,29.78,24,3,24,0.41
2014-3-30,53.1,45.6,37.6,39.3,37.3,32.8,88,73,53,29.99,29.88,17,4,17,0.05
2014-3-31,58.3,44.6,32.2,41.4,34.3,27.9,86,69,41,29.99,29.68,14,4,14,0.04
2014-4-1,46.8,43.6,40.8,40.9,39.5,37.7,90,85,79,29.88,29.71,18,6,18,0.37
2014-4-2,56.8,49.0,42.8,40.1,37.8,33.0,84,67,44,30.02,29.88,21,7,21,0.00
2014-4-3,57.9,45.9,36.7,40.9,36.4,30.7,85,70,49,30.02,29.93,18,3,18,0.00
2014-4-4,55.8,47.8,42.4,41.3,38.7,36.3,86,72,49,29.98,29.93,23,5,23,0.06
2014-4-5,56.5,48.5,44.2,46.2,42.7,38.5,88,80,66,30.11,29.97,21,4,21,0.06
2014-4-6,62.6,53.8,47.3,48.0,44.6,40.8,84,72,54,30.30,30.10,30,6,30,0.06
2014-4-7,76.8,57.6,42.3,50.5,44.6,38.3,86,65,32,30.30,30.09,10,3,10,0.00
2014-4-8,73.2,58.6,50.0,52.5,47.5,42.3,94,70,35,30.17,30.03,25,6,25,0.09
2014-4-9,62.1,52.0,45.0,49.0,39.8,30.5,93,66,35,30.20,30.09,23,8,23,0.18
2014-4-10,65.3,52.4,41.5,42.2,39.0,36.2,85,62,39,30.19,30.06,21,8,21,0.00
2014-4-11,67.8,54.5,43.7,45.0,40.6,38.6,83,61,40,30.09,29.94,24,10,24,0.05
2014-4-12,63.1,52.9,43.7,43.3,40.6,38.5,86,65,42,30.13,29.98,19,7,19,0.00
2014-4-13,68.4,53.9,39.6,39.6,31.1,18.5,81,48,17,30.33,30.14,20,5,20,0.00
2014-4-14,69.4,53.0,36.5,39.9,30.5,22.0,68,45,22,30.26,30.02,20,5,20,0.00
2014-4-15,57.4,51.1,45.3,39.7,37.2,34.2,69,59,48,30.19,30.09,25,10,25,0.00
2014-4-16,57.9,51.7,46.0,45.0,42.6,39.2,85,71,59,30.12,29.99,15,6,15,0.00
2014-4-17,54.5,50.4,46.8,49.8,46.2,39.6,95,86,75,29.99,29.82,20,5,20,0.18
2014-4-18,61.2,49.7,42.4,40.2,37.3,33.5,85,64,38,30.13,29.94,19,5,19,0.05
2014-4-19,57.4,47.2,37.2,46.0,39.2,31.9,85,74,50,30.21,29.86,25,5,25,0.07
2014-4-20,65.8,52.9,41.7,43.5,40.3,36.6,85,64,38,30.30,30.14,15,3,17,0.00
2014-4-21,66.2,51.4,44.6,47.8,43.0,39.1,91,74,42,30.14,29.81,15,4,15,0.15
2014-4-22,56.3,46.7,42.8,45.3,39.0,33.0,89,76,44,29.96,29.81,25,7,25,0.15
2014-4-23,51.1,46.0,41.7,47.4,43.0,39.6,94,90,84,29.96,29.77,10,2,10,0.63
2014-4-24,58.3,49.4,44.4,48.2,44.1,39.3,95,83,58,29.91,29.72,26,5,26,0.35
2014-4-25,57.7,47.8,41.9,41.9,39.6,38.1,89,74,50,29.90,29.79,23,7,23,0.01
2014-4-26,58.5,48.3,42.4,40.7,36.9,30.2,86,66,37,29.85,29.72,21,7,21,0.01
2014-4-27,51.4,43.8,40.5,42.5,39.4,37.5,92,85,63,30.14,29.72,23,4,23,0.57
2014-4-28,64.8,50.9,41.4,42.7,39.0,34.3,91,68,34,30.40,30.14,9,3,10,0.05
2014-4-29,74.3,58.3,44.2,44.2,35.2,23.1,82,49,16,30.55,30.40,18,4,18,0.00
2014-4-30,80.8,63.1,44.4,41.4,34.3,24.1,69,39,14,30.48,30.21,18,4,18,0.00
2014-5-1,86.0,66.4,48.2,48.5,41.4,36.3,66,43,22,30.24,29.99,14,3,14,0.00
2014-5-2,75.4,65.7,58.1,50.8,44.9,35.8,71,49,26,30.08,29.88,25,7,25,0.00
2014-5-3,60.8,54.0,49.3,48.7,46.3,42.4,93,76,57,29.95,29.81,17,4,21,0.13
2014-5-4,61.5,52.9,47.1,49.5,45.6,42.6,93,77,51,29.92,29.81,23,4,23,0.45
2014-5-5,61.7,53.3,47.1,46.8,44.0,39.6,95,73,49,30.03,29.92,21,6,21,0.02
2014-5-6,62.6,54.9,49.6,44.2,41.6,36.6,81,62,42,30.03,29.95,24,9,24,0.00
2014-5-7,66.2,54.4,44.1,43.6,39.8,36.8,82,60,40,30.02,29.88,21,8,21,0.00
2014-5-8,55.0,51.1,47.1,51.3,45.6,39.2,95,82,67,29.91,29.70,10,1,10,0.56
2014-5-9,56.5,48.6,43.7,49.0,43.6,40.6,97,83,63,30.03,29.79,24,7,24,0.66
2014-5-10,60.6,50.7,42.1,45.0,42.6,39.6,93,75,54,30.23,30.02,18,6,18,0.08
2014-5-11,70.7,56.6,46.8,45.7,43.5,40.2,86,65,35,30.30,30.21,16,6,16,0.00
2014-5-12,76.3,60.0,43.7,44.7,35.4,18.2,82,48,13,30.40,30.28,19,4,19,0.00
2014-5-13,81.9,63.9,46.2,42.6,36.5,28.9,65,40,17,30.39,30.27,17,4,17,0.00
2014-5-14,88.3,68.4,50.5,49.7,43.6,35.6,70,45,21,30.34,30.12,11,2,11,0.00
2014-5-15,84.6,70.0,55.0,55.4,49.1,44.4,69,49,31,30.14,29.96,19,4,19,0.00
2014-5-16,69.8,62.4,55.0,48.7,46.0,40.7,68,56,38,30.09,30.02,24,10,24,0.00
2014-5-17,68.2,60.1,53.6,50.0,46.4,43.3,77,62,43,30.05,29.85,21,8,21,0.00
2014-5-18,63.1,55.1,51.1,50.4,47.3,44.6,89,76,57,29.93,29.83,26,7,26,0.00
2014-5-19,68.7,58.6,49.6,49.3,46.9,44.2,92,68,44,30.01,29.93,21,6,21,0.00
2014-5-20,75.0,61.4,48.4,52.9,49.0,44.7,89,66,46,30.07,29.99,21,6,21,0.00
2014-5-21,73.2,60.7,52.0,51.2,48.8,46.8,84,66,43,30.10,30.01,26,12,26,0.00
2014-5-22,81.5,66.6,51.1,57.6,52.6,47.0,88,63,42,30.08,29.93,17,4,17,0.00
2014-5-23,70.5,65.1,59.5,56.3,55.0,53.5,87,70,58,30.09,29.97,17,6,17,0.00
2014-5-24,68.5,60.8,53.1,56.2,48.5,45.6,91,66,45,30.16,30.07,23,8,23,0.00
2014-5-25,71.6,60.5,52.3,53.1,49.4,45.5,84,68,42,30.10,29.95,24,6,24,0.00
2014-5-26,69.3,61.3,54.7,52.0,45.3,38.0,80,58,33,30.13,30.00,20,7,20,0.00
2014-5-27,66.9,57.5,48.6,47.6,42.9,37.9,84,60,35,30.14,30.04,20,7,20,0.00
2014-5-28,61.7,54.4,49.6,46.3,44.1,42.4,86,68,52,30.21,30.08,28,8,28,0.00
2014-5-29,66.2,57.1,49.8,49.2,46.3,43.0,92,69,48,30.23,30.09,21,7,21,0.01
2014-5-30,82.6,62.4,43.7,53.5,45.3,36.0,85,58,21,30.10,29.87,16,4,16,0.00
2014-5-31,75.6,63.6,52.9,53.7,50.3,48.1,85,64,43,30.03,29.95,24,9,24,0.01
2014-6-1,73.2,62.3,52.9,52.6,49.6,47.2,83,64,42,30.06,29.91,29,11,29,0.08
2014-6-2,77.4,64.3,52.7,55.4,52.4,48.0,88,67,37,29.93,29.79,22,7,22,0.00
2014-6-3,64.2,59.3,52.9,51.8,47.6,45.4,82,66,54,30.05,29.86,31,12,31,0.30
2014-6-4,75.4,62.3,50.4,53.0,48.5,41.3,87,63,41,30.08,30.01,21,11,21,0.00
2014-6-5,76.8,62.9,50.7,50.3,46.1,38.0,83,57,29,30.12,29.98,21,8,21,0.00
2014-6-6,69.3,57.0,50.2,50.4,47.4,45.1,84,71,47,30.09,30.02,19,4,19,0.00
2014-6-9,72.3,64.2,55.8,55.3,50.6,47.6,83,62,46,30.08,29.99,17,10,17,0.01
2014-6-10,72.3,62.2,52.7,49.0,47.0,44.6,80,59,43,30.04,30.00,19,11,19,0.07
2014-6-11,81.1,65.7,50.5,53.1,48.1,40.1,88,57,26,30.03,29.80,10,4,10,0.00
2014-6-12,66.7,59.8,50.9,52.1,49.5,46.9,96,70,53,29.91,29.79,21,8,21,0.32
2014-6-13,58.8,54.9,51.1,52.1,48.8,42.8,96,81,63,30.11,29.90,15,7,15,0.33
2014-6-14,63.0,56.4,52.0,48.9,45.7,42.0,73,67,59,30.11,29.96,17,8,17,0.00
2014-6-15,63.3,57.0,52.2,50.9,47.4,42.3,78,70,60,29.95,29.83,19,8,19,0.00
2014-6-16,60.8,53.2,48.7,46.8,43.0,39.9,76,68,55,29.91,29.85,21,9,21,0.00
2014-6-18,67.6,59.7,53.2,50.8,47.3,43.9,76,64,52,30.08,29.98,27,11,27,0.04
2014-6-19,80.2,67.6,52.5,53.8,49.5,42.8,85,56,29,30.02,29.94,22,7,22,0.00
2014-6-20,68.9,61.7,54.7,53.6,48.5,41.5,92,64,42,30.11,30.02,25,9,25,0.00
2014-6-21,73.4,61.8,48.7,51.8,47.1,41.6,85,61,33,30.09,29.97,20,6,20,0.00
2014-6-22,79.2,66.3,52.9,55.2,51.6,48.2,84,61,40,30.07,29.92,17,4,17,0.00
2014-6-23,81.3,68.6,56.7,54.0,52.0,47.2,79,57,34,30.06,29.94,19,6,19,0.00
2014-6-24,75.0,65.0,55.4,56.4,53.9,47.4,89,69,50,30.10,29.99,21,9,21,0.04
2014-6-25,78.1,64.4,54.0,59.0,55.3,51.1,93,74,43,30.00,29.81,17,4,17,0.00
2014-6-26,69.1,62.6,60.4,59.1,57.2,53.3,94,83,66,29.85,29.78,18,8,18,0.01
2014-6-27,70.7,61.2,56.5,61.1,56.1,50.5,99,84,63,29.94,29.81,27,5,27,0.31
2014-6-28,71.1,62.2,56.1,57.2,53.9,49.5,94,75,54,30.03,29.94,23,7,23,0.00
2014-6-29,70.5,62.5,56.1,55.1,52.4,49.2,93,71,52,30.18,30.04,22,9,22,0.00
2014-6-30,87.6,68.4,48.7,54.1,47.8,39.4,92,55,23,30.21,30.01,13,3,13,0.00
2014-7-1,97.5,77.5,57.7,54.2,48.9,38.1,67,41,14,30.02,29.76,14,3,14,0.00
2014-7-2,82.8,72.5,66.2,58.3,54.6,49.9,67,54,41,29.95,29.81,25,9,25,0.00
2014-7-3,74.5,66.0,59.7,54.4,52.8,50.5,81,63,48,30.06,29.94,25,10,25,0.00
2014-7-4,82.8,68.0,57.4,54.0,50.5,42.4,83,57,31,30.02,29.92,21,8,21,0.00
2014-7-5,88.9,73.7,61.9,56.5,53.4,39.7,74,52,20,30.10,30.00,18,6,18,0.00
2014-7-6,88.9,75.8,63.1,60.9,57.3,55.5,77,55,35,30.14,30.04,18,8,18,0.00
2014-7-7,88.7,76.5,63.1,65.0,62.1,58.6,86,63,41,30.10,29.92,14,5,14,0.00
2014-7-8,90.9,79.0,64.6,66.2,62.5,59.5,91,59,44,29.99,29.88,18,6,18,0.00
2014-7-9,83.7,71.6,63.1,61.1,57.8,55.6,77,63,43,29.95,29.83,32,12,32,0.17
2014-7-10,84.4,70.2,57.4,60.6,56.4,52.6,90,64,38,29.92,29.80,24,10,24,0.05
2014-7-11,86.0,73.5,59.7,59.5,56.9,53.0,86,58,34,30.00,29.87,21,5,21,0.00
2014-7-12,90.5,76.9,63.9,65.6,60.0,54.9,75,57,40,30.08,29.98,18,4,18,0.00
2014-7-13,77.2,69.7,65.5,66.7,63.0,59.3,89,79,62,30.12,29.99,22,4,22,0.00
2014-7-14,86.0,73.2,63.7,65.1,62.3,60.1,90,70,47,30.07,29.97,26,11,26,0.13
2014-7-15,90.1,76.3,63.1,66.2,63.4,59.7,91,66,42,30.07,29.89,17,4,17,0.00
2014-7-16,92.8,78.8,66.7,65.4,60.4,26.4,86,57,10,29.97,29.86,29,6,29,0.00
2014-7-17,80.6,71.2,60.8,58.6,53.0,46.1,79,55,32,29.98,29.91,27,13,27,0.17
2014-7-18,79.5,68.2,57.2,56.6,52.8,49.1,83,59,40,30.03,29.95,29,14,29,0.46
2014-7-19,84.2,72.7,61.7,63.2,59.8,56.5,86,66,46,30.06,29.91,29,11,29,0.08
2014-7-20,73.9,67.6,61.7,61.5,55.1,48.0,81,65,47,29.95,29.89,24,9,24,0.04
2014-7-21,77.9,66.7,56.8,54.0,49.6,36.5,79,56,25,30.03,29.94,16,7,16,0.00
2014-7-22,73.4,65.4,58.3,63.3,59.5,51.8,97,82,60,30.08,29.99,17,3,17,0.14
2014-7-23,66.4,60.2,56.1,62.2,56.5,50.1,99,88,64,30.14,29.97,24,5,24,0.44
2014-7-24,69.4,61.7,55.6,55.4,52.4,49.4,87,72,57,30.24,30.13,23,7,23,0.00
2014-7-25,80.2,65.3,52.2,57.5,53.5,47.9,94,69,33,30.16,30.00,20,6,20,0.00
2014-7-26,85.6,70.3,54.7,59.6,55.6,52.0,93,63,36,30.14,30.03,17,5,17,0.00
2014-7-27,87.8,71.9,58.1,65.4,59.0,52.7,86,66,33,30.13,30.00,8,2,8,0.00
2014-7-28,91.0,76.4,62.2,65.3,62.3,58.5,90,64,41,30.08,29.97,19,5,19,0.00
2014-7-29,90.0,77.2,64.6,64.7,60.7,57.8,81,58,37,30.07,29.95,24,7,24,0.00
2014-7-30,88.7,74.6,63.0,64.8,60.4,57.7,84,63,38,30.07,29.96,27,10,27,0.00
2014-7-31,88.0,76.3,63.0,64.6,60.6,56.9,83,60,43,30.04,29.90,22,5,22,0.00
2014-8-1,88.9,78.3,70.0,64.3,61.2,57.4,73,56,41,30.00,29.86,17,5,17,0.00
2014-8-2,86.7,75.7,66.6,63.3,61.0,58.9,80,62,44,29.97,29.89,24,7,24,0.02
2014-8-3,89.6,76.4,63.9,66.3,63.0,59.3,88,65,43,30.03,29.85,17,4,17,0.00
2014-8-4,88.9,78.0,67.1,67.3,64.0,60.8,86,64,45,29.95,29.82,24,6,24,0.00
2014-8-5,85.3,72.1,61.5,60.9,55.2,50.1,76,57,33,30.03,29.92,26,13,26,0.09
2014-8-6,81.5,71.0,61.7,60.8,58.3,56.6,86,66,45,30.09,30.00,30,12,30,0.02
2014-8-7,81.5,70.7,59.7,58.7,54.0,46.7,86,58,32,30.05,29.96,23,10,23,0.00
2014-8-8,77.5,67.5,57.9,57.4,53.7,49.1,84,63,46,30.07,29.99,23,12,23,0.00
2014-8-9,85.5,70.4,55.0,60.9,56.5,51.7,91,64,34,30.11,29.98,17,6,17,0.00
2014-8-10,99.5,78.3,58.1,58.2,51.8,35.0,84,48,11,30.09,29.91,11,3,11,0.00
2014-8-11,104.4,83.8,68.7,60.4,51.2,35.1,62,37,11,30.01,29.81,18,3,18,0.00
2014-8-12,82.4,73.2,65.1,66.3,60.9,53.1,96,68,39,29.92,29.79,31,4,31,0.08
2014-8-13,75.6,69.1,64.2,64.0,60.6,58.7,92,75,60,29.99,29.90,18,8,18,0.00
2014-8-14,77.9,68.2,61.0,59.3,57.5,55.9,89,70,48,30.02,29.93,15,5,15,0.00
2014-8-15,80.8,69.4,59.4,62.0,59.0,55.8,90,71,47,30.05,29.98,21,5,21,0.00
2014-8-16,86.2,68.3,59.7,63.2,60.3,57.7,93,77,43,30.09,29.99,16,5,16,0.00
2014-8-17,87.1,74.7,63.9,64.3,62.0,59.6,87,67,44,30.08,29.95,21,6,21,0.00
2014-8-18,94.3,77.7,62.4,65.8,62.2,57.6,86,62,31,29.99,29.76,15,4,15,0.00
2014-8-19,84.7,75.0,67.8,64.0,60.8,57.5,79,63,43,29.83,29.75,26,11,26,0.00
2014-8-20,74.7,67.4,60.3,58.9,51.6,46.6,75,58,42,29.96,29.83,24,10,24,0.00
2014-8-21,78.6,66.4,56.7,53.8,48.0,36.4,87,56,24,30.02,29.92,21,9,21,0.00
2014-8-22,79.0,66.9,57.4,57.4,53.1,49.2,85,62,41,30.07,29.94,21,7,21,0.00
2014-8-23,87.1,69.2,53.8,56.2,52.8,47.3,91,61,26,30.15,29.99,11,3,11,0.00
2014-8-24,80.8,67.2,55.8,58.1,53.2,49.9,83,62,36,30.00,29.87,14,4,20,0.00
2014-8-25,90.0,71.5,54.0,56.1,50.5,44.7,83,53,22,30.03,29.91,11,3,11,0.00
2014-8-26,93.0,75.9,59.7,56.6,52.8,46.9,75,48,24,30.07,29.93,11,3,11,0.00
2014-8-27,91.2,76.2,61.3,62.0,56.8,53.2,75,53,31,30.04,29.96,22,6,22,0.00
2014-8-28,82.4,72.5,63.1,61.3,57.2,52.8,82,61,37,30.08,29.99,22,9,22,0.00
2014-8-29,69.6,61.6,60.3,59.8,58.5,57.0,93,90,65,29.99,29.96,11,4,11,0.00
2014-8-30,60.6,60.6,60.6,58.6,58.6,58.6,93,93,93,29.97,29.97,4,4,6,0.00
2014-8-31,60.6,60.6,60.6,58.6,58.6,58.6,93,93,93,29.97,29.97,4,4,6,0.00
2014-9-1,80.4,72.8,64.2,55.9,53.7,49.0,71,52,41,29.93,29.79,18,7,18,0.01
2014-9-2,73.2,65.3,58.3,57.5,52.9,43.6,92,66,47,29.80,29.70,28,9,28,0.04
2014-9-3,71.6,62.4,56.3,50.2,47.7,44.1,74,59,43,29.92,29.77,22,9,22,0.00
2014-9-4,82.4,64.6,47.7,51.6,44.8,39.0,88,55,22,29.98,29.86,16,4,16,0.00
2014-9-5,88.0,69.3,52.7,48.9,42.2,34.1,71,42,16,30.02,29.88,21,4,21,0.00
2014-9-6,90.3,71.5,54.9,47.6,40.7,30.3,65,37,12,29.95,29.73,15,3,15,0.00
2014-9-7,88.9,70.1,55.6,55.8,46.0,38.8,60,44,26,29.77,29.63,19,4,19,0.00
2014-9-8,78.3,67.7,60.3,56.3,53.3,45.4,76,61,38,29.78,29.68,20,9,20,0.00
2014-9-9,72.0,64.5,58.1,54.5,49.8,45.4,74,60,44,29.95,29.78,24,10,24,0.00
2014-9-10,80.4,66.4,53.1,54.8,44.8,24.8,92,53,22,30.10,29.93,17,5,17,0.00
2014-9-11,73.2,62.0,51.8,34.5,27.6,19.0,49,29,13,30.24,30.04,21,5,21,0.00
2014-9-12,80.4,62.6,46.9,35.1,27.6,19.9,53,30,12,30.04,29.81,18,4,18,0.00
2014-9-13,83.3,65.2,48.6,37.7,29.9,20.2,57,31,11,29.89,29.73,19,3,19,0.00
2014-9-14,85.8,66.2,48.9,42.8,34.5,25.5,63,35,13,29.84,29.74,15,3,15,0.00
2014-9-15,88.5,68.1,52.3,44.6,38.5,28.9,64,38,13,29.83,29.69,14,3,14,0.00
2014-9-16,78.1,66.7,58.5,54.9,50.1,39.8,71,56,42,29.77,29.68,23,6,23,0.00
2014-9-17,81.5,68.4,59.5,56.6,52.3,48.2,72,58,32,29.70,29.53,17,4,17,0.00
2014-9-18,72.3,66.2,62.4,59.6,57.1,55.1,82,73,59,29.84,27.31,20,7,20,0.00
2014-9-19,81.3,69.9,61.7,58.5,56.7,54.8,86,65,42,29.94,29.84,19,6,19,0.00
2014-9-20,90.0,71.8,56.1,57.3,52.6,46.9,88,56,23,29.96,29.79,16,4,16,0.00
2014-9-21,92.1,73.9,59.2,57.8,52.3,45.9,70,49,22,29.83,29.68,18,3,18,0.00
2014-9-22,70.5,65.7,61.2,57.4,55.9,54.2,81,71,61,29.84,29.75,25,7,25,0.01
2014-9-23,68.9,63.3,58.6,58.8,55.6,51.9,92,76,61,29.80,29.64,8,2,8,0.00
2014-9-24,63.0,60.4,57.7,61.8,59.6,57.5,99,97,91,29.78,29.65,18,2,18,0.26
2014-9-25,71.8,60.7,54.7,59.6,56.0,51.9,99,86,52,29.81,29.71,15,2,15,0.02
2014-9-26,72.0,60.2,51.4,55.3,52.3,49.6,99,78,47,29.93,29.81,15,2,15,0.01
2014-9-27,70.2,58.6,48.4,57.4,53.1,47.8,98,83,61,29.96,29.83,20,4,20,0.00
2014-9-28,81.1,64.1,48.6,56.6,52.6,47.4,99,71,31,29.88,29.74,13,3,13,0.00
2014-9-29,69.8,61.3,56.8,55.9,53.2,48.1,89,75,53,29.85,29.75,29,8,29,0.00
2014-9-30,66.0,58.6,54.9,50.6,48.9,46.2,80,71,54,30.00,29.85,24,8,24,0.00
2014-10-1,65.8,58.7,52.2,49.8,46.9,44.1,90,66,48,30.07,30.00,21,8,21,0.00
2014-10-2,73.8,59.8,48.7,49.1,43.6,32.9,88,60,23,30.17,30.02,18,4,18,0.00
2014-10-3,78.3,59.2,45.0,45.3,41.1,35.3,85,56,23,30.22,30.06,14,3,14,0.00
2014-10-4,80.1,62.0,46.4,55.2,46.3,39.8,81,59,32,30.09,29.93,13,3,13,0.00
2014-10-5,82.9,67.8,54.7,59.6,53.5,48.6,83,62,34,29.99,29.85,18,4,18,0.00
2014-10-6,83.8,68.6,55.2,60.4,56.5,51.7,90,68,42,29.89,29.74,14,3,14,0.00
2014-10-7,82.6,67.7,55.6,60.8,57.1,51.3,88,71,44,29.81,29.71,17,4,17,0.00
2014-10-8,74.7,65.1,58.6,59.3,54.4,45.8,91,70,38,29.86,29.76,22,6,22,0.04
2014-10-9,75.7,60.8,48.4,54.4,49.1,-4.7,89,68,10,29.91,29.82,11,2,11,0.00
2014-10-10,76.8,62.6,47.7,56.0,50.5,41.8,81,66,44,29.93,29.88,18,5,21,0.00
2014-10-11,68.9,61.5,56.3,58.1,53.6,48.9,99,76,53,30.06,29.86,24,9,24,0.07
2014-10-12,63.1,58.2,54.1,53.0,50.8,48.4,86,77,63,30.13,29.94,14,5,14,0.00
2014-10-13,71.8,56.6,47.1,48.8,46.0,41.7,94,70,36,29.94,29.60,11,2,11,0.00
2014-10-14,59.4,54.3,51.4,55.3,52.0,44.6,99,92,65,29.75,29.48,23,2,23,0.39
2014-10-15,57.6,52.4,49.1,52.9,50.1,48.2,99,92,75,29.92,29.44,14,2,14,0.07
2014-10-16,69.3,54.4,46.4,50.7,46.7,42.8,99,79,40,29.94,29.77,9,2,9,0.00
2014-10-17,55.4,52.4,50.0,52.2,49.0,44.1,98,88,74,29.82,29.73,6,0,6,0.15
2014-10-18,68.7,56.5,50.2,60.0,54.3,49.9,99,93,71,29.89,29.76,7,1,7,0.01
2014-10-19,71.6,58.3,51.1,58.2,53.7,50.8,99,86,56,29.76,29.59,6,1,8,0.01
2014-10-20,60.3,56.1,52.5,58.1,55.0,51.8,98,96,88,29.75,29.59,10,1,10,0.25
2014-10-21,60.1,53.6,50.2,54.0,50.8,47.8,99,91,69,29.87,29.74,10,1,10,0.04
2014-10-22,55.2,52.2,49.5,54.4,51.5,48.8,99,97,83,29.77,29.56,19,1,19,0.30
2014-10-23,57.7,51.1,47.5,53.5,49.4,46.5,99,94,78,29.88,29.63,19,2,19,0.34
2014-10-24,50.7,47.0,45.7,49.9,46.6,44.9,99,98,96,29.93,29.88,4,1,4,0.00
2014-10-25,54.9,52.0,50.2,51.7,49.0,46.6,98,90,80,29.69,29.34,24,5,24,0.83
2014-10-26,52.3,48.9,46.2,47.2,45.3,43.0,96,88,75,29.98,29.69,22,5,22,0.43
2014-10-27,58.5,49.5,43.5,47.5,45.9,43.0,98,88,64,30.01,29.91,8,2,8,0.02
2014-10-28,50.4,47.9,46.2,49.3,47.1,45.4,99,97,91,29.92,29.81,7,2,7,0.45
2014-10-29,57.9,52.0,46.2,56.9,51.0,45.4,99,96,86,30.03,29.88,6,1,6,0.06
2014-10-30,55.6,53.1,51.8,54.6,52.2,51.3,98,97,92,29.96,29.65,5,1,7,0.53
2014-10-31,53.8,51.1,45.7,52.5,48.7,44.6,99,92,81,29.71,29.54,23,3,23,0.13
2014-11-1,53.4,46.9,41.4,44.8,42.4,40.3,99,85,66,29.87,29.63,21,6,22,0.01
2014-11-2,54.7,50.3,46.4,48.9,45.5,41.2,94,84,74,30.02,29.86,19,5,19,0.01
2014-11-3,56.1,52.4,50.2,52.1,50.4,48.7,96,93,86,30.06,29.98,11,1,11,0.01
2014-11-4,58.6,54.6,52.0,55.6,51.1,46.2,97,88,74,30.15,29.93,25,3,25,0.13
2014-11-5,58.5,53.9,48.2,52.3,49.5,45.9,94,85,76,30.16,29.92,6,1,6,0.00
2014-11-6,60.3,54.2,50.2,53.9,49.1,42.8,95,84,68,30.14,29.81,30,6,30,0.04
2014-11-7,59.7,50.3,41.2,45.8,42.4,37.3,89,76,50,30.29,30.14,14,4,14,0.00
2014-11-8,60.1,46.0,36.7,43.2,39.8,34.0,96,80,51,30.23,29.89,7,1,7,0.00
2014-11-9,55.6,49.8,43.7,46.5,43.1,38.2,91,78,54,29.90,29.70,31,8,31,0.20
2014-11-10,55.4,45.5,35.8,42.6,34.1,24.8,90,67,35,30.03,29.86,16,4,16,0.00
2014-11-11,43.0,35.1,27.7,26.8,13.5,-1.6,70,44,23,30.30,30.03,27,5,27,0.00
2014-11-12,37.2,28.4,21.9,6.2,1.7,-1.7,47,32,21,30.30,30.05,19,5,19,0.00
2014-11-13,28.4,25.2,23.5,20.2,13.1,-1.4,83,64,27,30.05,29.94,11,3,14,0.00
2014-11-14,37.2,27.2,19.2,27.7,20.0,12.3,83,75,53,30.19,29.90,8,1,9,0.20
2014-11-15,31.3,20.8,14.5,21.1,13.5,8.4,81,73,57,30.46,30.18,14,3,14,0.01
2014-11-16,30.7,20.5,13.8,17.1,11.8,7.3,77,69,49,30.48,30.38,16,3,16,0.00
2014-11-17,28.2,20.2,14.9,16.6,12.0,8.3,79,70,54,30.47,30.28,15,3,15,0.00
2014-11-18,24.1,19.9,16.0,16.7,13.3,9.5,80,75,71,30.27,30.08,10,3,10,0.00
2014-11-19,30.9,25.7,20.7,22.5,18.7,15.5,81,74,65,30.12,29.90,14,3,14,0.00
2014-11-20,38.5,31.6,27.7,32.1,26.5,21.1,85,81,73,29.98,29.88,6,1,6,0.02
2014-11-21,37.9,32.8,31.3,36.1,28.9,27.3,93,86,83,29.89,29.31,10,2,10,0.93
2014-11-22,47.7,43.4,37.9,41.7,39.0,36.0,93,85,70,30.05,29.45,28,5,28,0.21
2014-11-23,54.0,46.5,43.7,42.5,40.8,36.4,88,81,53,30.17,30.01,23,5,23,0.35
2014-11-24,51.8,44.5,38.8,47.9,40.2,35.9,89,85,80,30.25,30.03,12,2,12,0.14
2014-11-25,59.7,57.4,51.8,50.9,49.9,47.4,85,76,69,30.10,29.99,39,12,39,2.83
2014-11-26,61.9,55.6,49.6,49.7,47.6,45.3,86,75,62,30.10,29.83,17,3,17,0.05
2014-11-27,55.2,52.7,48.6,47.4,45.8,44.3,86,77,71,29.84,29.65,12,3,12,0.00
2014-11-28,54.9,49.9,41.5,49.9,45.1,34.2,87,84,74,29.66,29.26,16,4,16,0.71
2014-11-29,41.9,36.7,28.4,35.3,28.9,18.5,85,73,57,30.01,29.39,30,7,30,0.27
2014-11-30,30.2,24.3,19.6,18.5,7.3,4.8,66,48,36,30.17,30.01,16,6,16,0.00
2014-12-1,27.1,24.3,19.6,18.2,14.0,8.6,73,64,57,30.10,30.01,8,2,8,0.00
2014-12-2,27.9,26.7,25.7,19.0,18.0,16.4,73,69,63,30.12,29.95,14,4,14,0.00
2014-12-3,32.4,30.2,27.9,20.9,19.6,16.9,70,64,59,29.95,29.77,12,3,12,0.00
2014-12-4,32.7,31.3,29.3,28.1,26.0,20.6,83,81,66,29.94,29.77,5,0,5,0.30
2014-12-5,34.5,33.5,32.4,29.6,28.8,27.8,84,83,82,30.03,29.86,9,1,9,0.33
2014-12-6,39.7,35.8,32.5,36.2,31.6,28.3,88,85,82,30.14,29.85,7,2,7,0.19
2014-12-7,40.3,38.2,35.2,36.8,34.4,30.9,89,86,83,30.13,30.07,10,2,10,0.00
2014-12-8,40.1,38.9,37.2,36.7,35.4,32.8,89,87,84,30.09,29.95,4,1,4,0.00
2014-12-9,42.3,40.1,38.3,38.7,36.7,35.1,88,87,87,29.95,29.72,5,1,5,0.31
2014-12-10,51.8,44.1,41.5,46.3,39.8,37.7,88,85,67,29.71,29.27,11,2,11,0.07
2014-12-11,54.1,47.2,41.0,43.6,40.2,36.8,85,77,53,29.49,29.08,28,4,28,0.02
2014-12-12,50.4,46.6,42.8,41.8,39.3,36.1,84,76,65,29.89,29.48,12,4,14,0.00
2014-12-13,50.4,42.8,34.2,41.0,37.2,29.3,85,81,69,30.07,29.88,12,4,16,0.00
2014-12-14,37.8,35.3,32.2,33.6,29.8,27.6,86,80,74,30.07,29.99,15,4,15,0.01
2014-12-15,37.6,36.0,32.9,31.4,29.0,27.4,81,75,73,30.00,29.82,14,4,14,0.08
2014-12-16,37.0,34.5,32.7,32.4,29.9,27.9,84,83,81,29.82,29.75,9,1,9,0.18
2014-12-17,38.7,37.4,35.6,35.1,33.2,30.7,87,85,82,29.87,29.73,6,1,6,0.06
2014-12-18,40.5,38.2,36.3,36.3,34.4,31.4,87,86,82,29.88,29.73,6,1,6,0.09
2014-12-19,49.3,40.9,37.8,41.9,36.7,34.2,88,85,75,29.87,29.72,8,2,8,0.14
2014-12-20,52.2,40.6,38.8,47.8,36.9,35.5,88,87,84,29.79,29.44,28,2,28,1.25
2014-12-21,55.9,49.9,45.7,49.5,44.3,41.4,86,81,73,29.99,29.44,46,7,46,2.00
2014-12-22,53.2,47.0,41.5,43.0,39.6,35.8,86,76,60,30.22,29.98,14,3,14,0.04
2014-12-23,50.0,43.1,39.2,45.2,37.7,34.2,85,81,74,30.21,29.77,11,2,11,0.01
2014-12-24,49.8,43.0,38.8,45.5,36.1,31.9,86,77,61,29.86,29.65,27,9,27,0.02
2014-12-25,48.2,42.9,39.6,35.3,33.7,32.0,80,70,58,30.10,29.85,23,6,23,0.00
2014-12-26,47.7,40.2,32.7,38.0,34.3,27.9,85,79,67,30.19,30.07,14,3,14,0.00
2014-12-27,43.5,42.0,40.3,38.5,36.7,31.9,85,82,64,30.15,29.93,26,6,26,0.41
2014-12-28,46.6,40.6,36.7,35.2,33.7,30.7,86,77,60,30.03,29.94,27,6,27,0.32
2014-12-29,37.6,33.3,25.2,31.2,20.0,9.8,82,59,33,30.51,29.95,31,5,31,0.04
2014-12-30,28.9,23.0,16.3,10.4,1.9,-3.3,54,40,26,30.68,30.51,19,5,19,0.00
2014-12-31,28.6,19.8,14.9,8.8,4.5,0.9,63,51,32,30.60,30.34,17,4,17,0.00
2015-1-1,30.6,21.2,14.7,12.3,7.8,3.8,66,56,41,30.34,30.19,15,3,18,0.00
2015-1-2,41.5,29.3,17.4,32.5,18.9,7.6,78,65,53,30.19,29.92,20,3,20,0.00